Beaufort, SC

1:02 PM EST on February 23, 2017 (GMT -0500)
Beaufort Marine Corps Air Station

Weather History for KNBC - March, 2013

Change the Weather History Date:

Thursday, March 28, 2013

  Actual Average Record
Temperature  
Mean Temperature 50 °F -  
Max Temperature 63 °F 71 °F 127 °F (2005)
Min Temperature 37 °F 49 °F 32 °F (1955)
Degree Days  
Heating Degree Days 16    
Moisture  
Dew Point 27 °F    
Average Humidity 48    
Maximum Humidity 83    
Minimum Humidity 20    
Precipitation  
Precipitation 0.00 in - - ()
Sea Level Pressure  
Sea Level Pressure 30.26 in    
Wind  
Wind Speed 6 mph (NNW)    
Max Wind Speed 14 mph    
Max Gust Speed 20 mph    
Visibility 10 miles    
Events      
Averages and records for this station are not official NWS values.
T = Trace of Precipitation, MM = Missing Value Source: NWS Daily Summary

Daily Weather History Graph

Daily Weather History Graph

Search for Another Location

Airport or City:

Trip Planner

Search our weather history database for the weather conditions in past years. The results will help you decide how hot, cold, wet, or windy it might be!

Date:

Astronomy

Mar. 28, 2013 Rise Set
Actual Time 7:15 AM EDT 7:40 PM EDT
Civil Twilight 6:51 AM EDT 8:04 PM EDT
Nautical Twilight 6:22 AM EDT 8:33 PM EDT
Astronomical Twilight 5:53 AM EDT 9:03 PM EDT
Moon 9:21 PM EDT (3/28) 7:49 AM EDT (3/28)
Length of Visible Light 13h 13m
Length of Day
12h 24m
Full, 98% of the Moon is Illuminated
Mar 28
Full
Apr 3
Last Quarter
Apr 10
New
Apr 18
First Quarter
Apr 25
Full

Hourly Weather History & Observations

Time (EDT) Temp. Windchill Dew Point Humidity Pressure Visibility Wind Dir Wind Speed Gust Speed Precip Events Conditions
12:56 AM 39.9 °F 37.8 °F 32.0 °F 73% 30.24 in 10.0 mi WSW 3.5 mph - N/A   Clear
1:56 AM 37.9 °F 34.4 °F 33.1 °F 83% 30.24 in 10.0 mi West 4.6 mph - N/A   Clear
2:56 AM 42.1 °F 40.2 °F 32.0 °F 67% 30.23 in 10.0 mi NNW 3.5 mph - N/A   Clear
3:56 AM 41.0 °F 35.8 °F 30.0 °F 65% 30.23 in 10.0 mi North 8.1 mph - N/A   Clear
4:56 AM 41.0 °F 35.2 °F 28.9 °F 62% 30.24 in 10.0 mi ENE 9.2 mph - N/A   Clear
5:56 AM 37.9 °F 34.4 °F 28.0 °F 68% 30.26 in 10.0 mi NNE 4.6 mph - N/A   Clear
6:56 AM 37.0 °F 32.4 °F 28.9 °F 73% 30.27 in 10.0 mi North 5.8 mph - N/A   Clear
7:56 AM 37.9 °F 33.5 °F 28.9 °F 70% 30.30 in 10.0 mi North 5.8 mph - N/A   Clear
8:56 AM 44.1 °F 38.6 °F 28.0 °F 53% 30.32 in 10.0 mi NNE 10.4 mph - N/A   Clear
9:56 AM 48.0 °F - 26.1 °F 42% 30.32 in 10.0 mi NE 8.1 mph - N/A   Clear
10:56 AM 51.1 °F - 24.1 °F 35% 30.33 in 10.0 mi North 8.1 mph 16.1 mph N/A   Clear
11:56 AM 54.0 °F - 24.1 °F 31% 30.33 in 10.0 mi North 10.4 mph - N/A   Clear
12:56 PM 55.9 °F - 23.0 °F 28% 30.30 in 10.0 mi Variable 4.6 mph 16.1 mph N/A   Clear
1:56 PM 57.0 °F - 24.1 °F 28% 30.28 in 10.0 mi WNW 13.8 mph 19.6 mph N/A   Clear
2:56 PM 60.1 °F - 21.9 °F 23% 30.25 in 10.0 mi NNW 12.7 mph 19.6 mph N/A   Clear
3:56 PM 61.0 °F - 21.0 °F 21% 30.22 in 10.0 mi North 12.7 mph - N/A   Clear
4:56 PM 62.1 °F - 21.9 °F 21% 30.21 in 10.0 mi NNW 12.7 mph - N/A   Clear
5:56 PM 62.1 °F - 19.9 °F 20% 30.21 in 10.0 mi NW 10.4 mph - N/A   Clear
6:56 PM 60.1 °F - 19.9 °F 21% 30.22 in 10.0 mi NW 6.9 mph - N/A   Clear
7:56 PM 57.0 °F - 23.0 °F 27% 30.24 in 10.0 mi WNW 3.5 mph - N/A   Clear
8:56 PM 50.0 °F - 30.0 °F 46% 30.26 in 10.0 mi Calm Calm - N/A   Clear
9:56 PM 46.9 °F - 30.9 °F 54% 30.28 in 10.0 mi Calm Calm - N/A   Clear
10:56 PM 48.0 °F - 36.0 °F 63% 30.29 in 10.0 mi Calm Calm - N/A   Clear
11:56 PM 46.0 °F - 39.0 °F 76% 30.29 in 10.0 mi Calm Calm - N/A   Clear